Flag for Canada Weather past 2 weeks in Burnaby, British Columbia, Canada

Now
66 °F

Scattered clouds.


Feels Like: 66 °F
Forecast: 53 / 76 °F
Wind: 8 mph from Southwest

Location: Vancouver International Air-Port

Current Time: May 27, 2015 at 5:11:24 PM

Latest Report: May 27, 2015 at 4:00 PM


Visibility: 30 mi

Pressure: 30.02 "Hg

Humidity: 73%

Dew point: 57 °F

Location of BurnabyLocation

Historic Weather in Burnaby — Graph

°F

Burnaby temperature yesterday

Maximum temperature yesterday: 66 °F (at 4:00 PM)
Minimum temperature yesterday: 57 °F (at 3:00 AM)
Average temperature yesterday: 61 °F

Past Weeks' High & Low Weather Summary

 TemperatureHumidityPressure
High70 °F (May 18, 4:00 PM)100% (May 18, 5:00 AM)30.16 "Hg (May 18, 5:00 AM)
Low52 °F (May 14, 2:00 AM)56% (May 12, 6:00 PM)29.78 "Hg (May 21, 5:00 PM)
Average60 °F79%29.97 "Hg
* Reported May 12 4:00 PM — May 27 4:00 PM, Burnaby, Weather by CustomWeather, © 2015

Note: Actual official high and low records may vary slightly from our data, if they occured in-between our weather recording intervals... More about our weather records

Advertising

Burnaby weather history for previous 24 hours

 ConditionsComfort  
Time TempWeatherWind HumidityBarometerVisibility
4:00 PM
Wed, May 27
66 °FScattered clouds.8 mph73%30.02 "Hg30 mi
3:00 PM66 °FPartly sunny.7 mph73%30.04 "Hg20 mi
2:00 PM64 °FOvercast.9 mph78%30.06 "Hg15 mi
1:00 PM64 °FOvercast.5 mph73%30.06 "Hg15 mi
12:00 PM64 °FLow clouds.5 mph73%30.07 "Hg15 mi
11:00 AM61 °FLow clouds.2 mph77%30.07 "Hg15 mi
10:00 AM61 °FLow clouds.5 mph72%30.07 "Hg15 mi
9:00 AM59 °FOvercast.5 mph77%30.07 "Hg20 mi
8:00 AM59 °FOvercast.3 mph82%30.07 "Hg20 mi
7:00 AM59 °FOvercast.6 mph77%30.06 "Hg20 mi
6:00 AM59 °FOvercast.3 mph82%30.05 "Hg20 mi
5:00 AM59 °FOvercast.5 mph82%30.04 "Hg20 mi
4:00 AM59 °FOvercast.6 mph82%30.03 "Hg20 mi
3:00 AM61 °FOvercast.3 mph77%30.03 "Hg20 mi
2:00 AM61 °FOvercast.7 mph83%30.03 "Hg20 mi
1:00 AM63 °FOvercast.2 mph73%30.02 "Hg20 mi
12:00 AM61 °FMostly cloudy.No wind77%30.02 "Hg20 mi
11:00 PM
Tue, May 26
61 °FPassing clouds.5 mph72%30.01 "Hg20 mi
10:00 PM63 °FScattered clouds.5 mph68%30.01 "Hg20 mi
9:00 PM63 °FPartly sunny.6 mph73%29.99 "Hg20 mi
8:00 PM64 °FPartly sunny.7 mph68%29.99 "Hg20 mi
7:00 PM64 °FPassing clouds.6 mph73%29.98 "Hg20 mi
6:00 PM64 °FPartly sunny.7 mph73%30.00 "Hg20 mi
5:00 PM64 °FScattered clouds.9 mph73%30.01 "Hg20 mi
Weather by CustomWeather, © 2015

See weather overviewHow to use our weather pages